Tracking 31023 objects as of 20-Jul-2025
HD Live streaming from Space Station
objects crossing your sky now

IRIDIUM 128

Track IRIDIUM 128 now!
10-day predictions
IRIDIUM 128 is classified as:


NORAD ID: 42811
Int'l Code: 2017-039J
Perigee: 783.4 km
Apogee: 786.2 km
Inclination: 86.4 °
Period: 100.4 minutes
Semi major axis: 7155 km
RCS: Unknown
Launch date: June 25, 2017
Source: United States (US)
Launch site: AIR FORCE WESTERN TEST RANGE (AFWTR)
Your satellite tracking list
Your tracking list is empty




NASA's NSSDC Master Catalog

Two Line Element Set (TLE):
1 42811U 17039J   25200.62262365  .00000035  00000-0  54391-5 0  9992
2 42811  86.4013 164.1553 0001957  89.9099 270.2321 14.34217777422313
Source of the keplerian elements: AFSPC